Terminal Aerodrome Forecast
Issued by NWS Shreveport, LA

Home | Current Version | Previous Version | Text Only | Print | Product List | Glossary On
Versions: 1 2 3 4 5 6 7 8 9 10 11 12 13 14 15 16 17
000
FTUS44 KSHV 212300
TAFSHV
TAF
KSHV 212320Z 2200/2224 22005KT P6SM SKC
      TEMPO 2200/2203 SCT050 BKN100
     FM221500 21008KT P6SM SKC=

USA.gov is the U.S. government's official web portal to all federal, state and local government web resources and services.